Tracking 20626 objects as of 8-Apr-2020
HD Live streaming from Space Station
objects crossing your sky now

ARIANE 1 DEB

Track ARIANE 1 DEB now!
10-day predictions


NORAD ID: 40778
Int'l Code: 1979-104AF
Perigee: 713.8 km
Apogee: 13,551.9 km
Inclination: 17.9 °
Period: 260.3 minutes
Semi major axis: 13503 km
RCS: Unknown
Launch date: December 24, 1979
Source: European Space Agency (ESA)
Launch site: FRENCH GUIANA (FRGUI)

Note: This is SATELLITE DEBRIS
aabbcc
Your satellite tracking list
Your tracking list is empty




NASA's NSSDC Master Catalog

Two Line Element Set (TLE):
1 40778U 79104AF  20097.09317478 +.00000558 +00000-0 +32387-2 0  9997
2 40778 017.8930 246.7540 4753519 208.2762 344.5134 05.53243760128724
Source of the keplerian elements: AFSPC